Regional Weather Roundup
Issued by NWS Albany, NY

Home | Current Version | Previous Version | Graphics & Text | Print | Product List | Glossary On
Versions: 1 2 3 4 5 6 7 8 9 10 11 12 13 14 15 16 17 18 19 20 21 22 23 24 25 26 27 28 29 30 31 32 33 34 35 36 37 38 39 40 41 42 43 44 45 46 47 48 49 50
000
ASUS41 KALY 052010
RWRALY

NEW YORK STATE HOURLY WEATHER ROUNDUP
NATIONAL WEATHER SERVICE ALBANY NY
400 PM EDT TUE MAY 05 2015

NOTE: "FAIR" INDICATES FEW OR NO CLOUDS BELOW 12,000 FEET WITH NO
SIGNIFICANT WEATHER AND/OR NO OBSTRUCTIONS TO VISIBILITY.

NYZ032-033-038>043-046>054-057>066-NYZ062>081-052100-
EAST


CITY           SKY/WX    TMP DP  RH WIND       PRES   REMARKS
ALBANY         CLOUDY    77  46  33 CALM      30.17F
GLENS FALLS    CLOUDY    73  40  30 S7        30.18F
POUGHKEEPSIE   MOSUNNY   80  50  34 E7        30.13F
NEWBURGH       MOSUNNY   81  46  30 N9        30.16F
MONTGOMERY     MOSUNNY   83  44  25 SW8       30.14F
WHITE PLAINS   MOSUNNY   80  52  37 NW7       30.16F
ISLIP          PTSUNNY   76  52  43 S10       30.16F
NEW YORK CITY  PTSUNNY   80  54  40 S8        30.15F
CENTRAL PARK   MOSUNNY   83  53  35 VRB3      30.18F
$$

NYZ005>009-017-018-044>046-055-056-052100-
CENTRAL


CITY           SKY/WX    TMP DP  RH WIND       PRES   REMARKS
FULTON         CLOUDY    67  41  38 NW7       30.26F
SYRACUSE       CLOUDY    70  45  40 VRB6      30.24F
ROME           CLOUDY    70  42  36 NW6       30.24F
ELMIRA         CLOUDY    74  51  44 N12       30.21F
BINGHAMTON     CLOUDY    71  44  37 N10       30.23F
MONTICELLO     PTSUNNY   75  43  31 N9        30.23R
$$

NYZ026>034-041>043-052100-
NORTH


CITY           SKY/WX    TMP DP  RH WIND       PRES   REMARKS
WATERTOWN      CLOUDY    68  34  28 CALM      30.26F
FORT DRUM      NOT AVBL
MASSENA        PTSUNNY   67  33  28 W12G18    30.25F
SARANAC LAKE   PTSUNNY   63  28  26 VRB7      30.23F
PLATTSBURGH    PTSUNNY   65  31  28 E7        30.21F
$$

NYZ001>004-010>016-019>021-052100-
WEST


CITY           SKY/WX    TMP DP  RH WIND       PRES   REMARKS
NIAGARA FALLS  CLOUDY    63  50  62 N7        30.26F
BUFFALO        CLOUDY    66  52  60 N8        30.25F
DUNKIRK        LGT RAIN  57  49  74 N7        30.27F
JAMESTOWN      CLOUDY    55  50  82 NW9       30.27F
WELLSVILLE     CLOUDY    71  44  37 N5        30.26F
ROCHESTER      CLOUDY    63  45  51 N9        30.27F
PENN YAN       CLOUDY    69  47  45 VRB3      30.25F
$$

             KEY
       WCI = WIND CHILL INDEX
       VSB = VISIBILITY
       HX  = HEAT INDEX
$$


USA.gov is the U.S. government's official web portal to all federal, state and local government web resources and services.